View from above orbital plane
|
View from above satellite
|
Ground track
|
The orbit data is extracted from the following two-line orbital elements,
1 43803U 18099AX 22178.42638615 .00001342 00000-0 12100-3 0 9997
2 43803 97.6198 245.1999 0013448 230.3887 129.6148 14.97127540194566
Epoch (UTC): | 27 June 2022 10:13:59 |
Eccentricity: | 0.0013448 |
inclination: | 97.6198° |
perigee height: | 566 km |
apogee height: | 585 km |
right ascension of ascending node: | 245.1999° |
argument of perigee: | 230.3887° |
revolutions per day: | 14.97127540 |
mean anomaly at epoch: | 129.6148° |
orbit number at epoch: | 19456 |
The dashed part of the orbit path shows where the satellite is in the earth's shadow,
|
|